0 HST 1 20580U 90037B 25259.02980319 .00007036 00000-0 25510-3 0 9991 2 20580 28.4678 148.7266 0002470 358.6989 1.3599 15.26330207746572 0 ISS (ZARYA) 1 25544U 98067A 25259.15672217 .00010925 00000-0 19686-3 0 9994 2 25544 51.6329 216.1838 0004347 344.8645 15.2213 15.50326031529274 0 CXO 1 25867U 99040B 25259.35019206 .00000941 00000-0 00000-0 0 9993 2 25867 51.3649 125.8051 8285650 310.4265 0.3581 0.37804868 16283